India Forums Logo

Diya Aur Baati Hum

India Forums > Forum Index > Diya Aur Baati Hum
Diya Aur Baati Hum, is about a Sandhya's struggle, who dreams to become an IPS officer. She dreams to break the boundaries of her narrow confined existence of middle class values.
...
<< | 15 | 16 | 17 | 18 | 19 | 20 | 21 | 22 | 23 | 24 | 25 | 26 | 27 | 28 | 29 | 30 | 31 | 32 | 33 | ... >>
TIDTopic SubjectStart DateLast Entry
2793257One more chance2/17/2012 11:13:46 AM2/17/2012 11:13:46 AM
2793345Body double of Sandhya used Pics on pg 5-62/17/2012 12:16:56 PM2/20/2012 9:09:32 AM
279336317 Feb-Crass, Boring and Repetitive2/17/2012 12:24:42 PM2/17/2012 8:33:42 PM
2793807suraj in hospital??2/17/2012 11:06:11 PM2/18/2012 6:21:40 AM
2794060Deepika 2 Sandhya Fashion Ka Jalwa-U,Me,Tv Segment2/18/2012 3:40:00 AM2/20/2012 10:20:15 AM
2794375Jalebis and Thank you DABH2/18/2012 9:59:25 AM2/27/2012 11:31:44 AM
2794531Cholis, Barebacks and Vulgarity2/18/2012 12:57:15 PM2/19/2012 9:33:12 AM
2794779CVs please !!!2/18/2012 10:47:03 PM2/20/2012 6:26:50 AM
2794975Star Parivaar Awards 2012 Promo2/19/2012 3:49:34 AM2/22/2012 3:52:09 AM
2795015STAR PARIVAAR PICS-SURAJ AND SANDHYA2/19/2012 4:37:40 AM2/20/2012 5:01:30 PM
2795385Star Parivaar Awards 2012- Discuss here Only!2/19/2012 12:59:55 PM7/5/2012 1:22:32 AM
2795441Does Sandhya loves Suraj?2/19/2012 3:14:56 PM2/28/2012 8:11:34 PM
2796353an Educated girl...2/20/2012 9:05:15 AM2/21/2012 3:39:13 PM
2796430Suraj's Lesson to balance sweetness in Life2/20/2012 9:38:09 AM2/21/2012 5:55:15 AM
2796761WU-20Feb12[Maasa asks Sandhya to lve afer mariage]2/20/2012 12:16:09 PM2/21/2012 12:07:55 AM
2796866I hope suraj opens his mouth tomorrow2/20/2012 2:11:05 PM2/20/2012 10:12:05 PM
2796915Women Be Illiterate and Punch Bags2/20/2012 3:09:40 PM2/21/2012 1:23:14 AM
2796941Sooraj Show Jwala2/20/2012 3:50:25 PM2/21/2012 3:45:42 PM
2797333Moderators, Nighties and Bodydoubles2/21/2012 1:34:07 AM2/23/2012 2:25:41 PM
2797577ANAS-DEEPIKA awarding the JAIPUR Women police PICS2/21/2012 4:31:19 AM2/22/2012 1:57:29 AM
2798044Superb piece of acting by ANAS !!!2/21/2012 9:32:16 AM2/22/2012 3:49:38 AM
2798045It was a sad episode2/21/2012 9:32:56 AM2/22/2012 12:32:32 AM
2798175SP Patis Talk About Love And Duty - Sooraj2/21/2012 10:51:12 AM2/22/2012 9:05:32 AM
2798180WU-21 Feb 12 [SurYa sad moments]2/21/2012 10:53:18 AM2/22/2012 2:45:34 AM
2798539HT: Lookng for smthg diff- DABH mntd2/21/2012 6:24:28 PM2/22/2012 7:51:07 AM
2798570!!!***Happy Birthday Anushini/Yogadarshini***!!!2/21/2012 7:36:23 PM2/22/2012 8:24:12 AM
2798626sad!2/21/2012 9:04:29 PM2/21/2012 9:04:29 PM
2798642Diya aur Bati Tops again.. ---Ormax2/21/2012 9:31:30 PM2/28/2012 9:53:54 PM
2798973Sandhyas last attempt to prove --indya.com2/22/2012 1:46:12 AM2/22/2012 2:03:10 PM
2799068SP Poll: Who is the most inspiring character on SP2/22/2012 3:11:14 AM2/22/2012 10:03:06 PM
2799089new promo- ter s a pbm n typing n msg board wu plz2/22/2012 3:30:07 AM2/22/2012 3:30:07 AM
2799245Even after maasa accepts2/22/2012 6:00:51 AM2/26/2012 6:49:47 AM
2799367New Promo-22-Feb-122/22/2012 7:30:33 AM2/23/2012 8:17:30 PM
2799610Kudos to SURYA n entire crew of DABH2/22/2012 9:25:16 AM2/22/2012 11:38:40 PM
2799703Today's update will be late2/22/2012 9:57:34 AM2/23/2012 6:38:55 AM
2799886PLS HELP ME ITS URGENT...2/22/2012 11:21:18 AM2/22/2012 11:30:36 AM
2800014Good Episode but where is Sooraj in all this2/22/2012 12:55:46 PM2/23/2012 12:56:12 AM
2800034Importance of Girl child. Awesome topic on DABH!2/22/2012 1:25:33 PM2/24/2012 3:06:39 AM
2800059Anas and Deepika pics2/22/2012 1:59:40 PM2/23/2012 4:28:05 AM
2800218Ghatiya Epi2/22/2012 7:37:44 PM2/22/2012 7:37:44 PM
2800401Sandhya a.k.a Deepika was Superbbb.. today2/23/2012 12:30:33 AM2/23/2012 12:30:33 AM
2800498Real RockStar -- Sandhya2/23/2012 2:04:59 AM2/23/2012 12:45:03 PM
2800525Sandhya Brother is back...2/23/2012 2:37:03 AM2/28/2012 10:25:21 PM
2800685sbb 23.2.12 pics2/23/2012 4:51:46 AM2/23/2012 8:18:35 PM
2800730What Suraj-Sandhya say abt each other-Article2/23/2012 5:24:53 AM2/23/2012 8:16:14 PM
2800876Wednesday 22Feb12 WU2/23/2012 7:31:38 AM2/23/2012 11:05:58 AM
2800916Help Desk - reg2/23/2012 8:00:34 AM2/23/2012 8:00:34 AM
2800998FINALLY!!2/23/2012 8:50:21 AM2/24/2012 4:48:05 AM
2801040I wonder is Bhabo slightly jealous of Sandhya2/23/2012 9:13:02 AM2/23/2012 8:05:41 PM
2801054grreat!!2/23/2012 9:19:50 AM2/24/2012 3:20:53 AM
2801113DABH: WU 23rd Feb.'11 (Maasa accepted sandhya)2/23/2012 9:46:09 AM2/24/2012 6:33:15 AM
2801220Sandhya Another superb act :) Today2/23/2012 10:44:20 AM2/24/2012 4:49:12 AM
2801372Sweetest Darling-- Sandhya2/23/2012 12:32:41 PM2/23/2012 12:32:41 PM
2801395I love DABH...2/23/2012 1:00:03 PM3/4/2012 2:36:42 PM
2801425DABH in Star Utsav...2/23/2012 1:35:13 PM2/25/2012 1:16:40 AM
2801436Fantastic, Great Maasa but where is Sooraj2/23/2012 1:43:04 PM2/24/2012 1:56:48 AM
2801453Sanskara/ Moral Values- Chavi/Sandhya2/23/2012 1:59:43 PM2/23/2012 1:59:43 PM
2801514Surya SPA pictures2/23/2012 3:47:18 PM2/29/2012 2:06:19 AM
2801525Did maasa say Sandy is more goodlooking thn suraj2/23/2012 4:19:38 PM2/23/2012 10:57:35 PM
2801570Fun Post--Who is REALLY happy with Ghoongat Mukti?2/23/2012 6:33:22 PM2/25/2012 1:14:03 AM
2801633Meena's Truth Revealed2/23/2012 8:51:17 PM2/24/2012 9:54:55 AM
2801829HurryUp for Show RockStars2/24/2012 1:48:07 AM2/24/2012 4:45:33 AM
2801992SP Poll: Which leading lady is most determined?2/24/2012 5:10:18 AM2/24/2012 5:17:38 AM
2802075SBS 24.2.12 SPA PROMO SHOOT PICS2/24/2012 6:40:14 AM2/24/2012 9:50:24 AM
2802299Bhabo and babasa pictures from Starplus promotion2/24/2012 9:10:02 AM2/26/2012 4:31:22 PM
2802334The spoiler topic2/24/2012 9:29:59 AM4/21/2012 8:47:03 AM
2802387surajs father love him bless him2/24/2012 10:02:55 AM2/24/2012 10:44:00 AM
2802400For how long Sandhya will keep falling on Sooraj?2/24/2012 10:11:06 AM2/26/2012 9:35:09 AM
2802413Precap--Suraj's Efforts2/24/2012 10:18:46 AM2/27/2012 11:35:21 AM
2802477WU 24Feb12-Suraj Wants Sandy To Attend H Function2/24/2012 10:54:42 AM2/27/2012 2:43:31 AM
2802541Voting Lines Xtended to March 4th2/24/2012 11:44:42 AM3/1/2012 3:56:23 AM
2802554Absolutley Fantastic!!!2/24/2012 11:59:46 AM2/25/2012 1:05:45 AM
2802611Will Suraj be taunted???2/24/2012 12:51:56 PM2/25/2012 8:17:27 PM
2802626Hume jo uthaiyo to khud bhi phisal jaiyo2/24/2012 1:13:29 PM2/25/2012 12:16:42 PM
2802645DC Article - Anas Rashid2/24/2012 1:41:49 PM2/26/2012 5:32:54 AM
<< | 15 | 16 | 17 | 18 | 19 | 20 | 21 | 22 | 23 | 24 | 25 | 26 | 27 | 28 | 29 | 30 | 31 | 32 | 33 | ... >>